THOR ABLESTAR DEB, 408

Orbit data source: Space-Track

THOR ABLESTAR DEB, 408 is space debris in LEO originally from a launch on Thu, 29 Jun 1961 UTC launched from the Air Force Eastern Test Range (AFETR). Debris objects in space refer to the collection of defunct objects orbiting the Earth. Examples of debris include non-operational satellites, rocket bodies, and fragments generated from explosions, collisions, or faulty payload assembly.

Loading next visibility...
Identifier
408, 1961-015EH
Orbit
LEO
Country
Flag of USUS
Related business
Manufacturer
Unknown
Mission
Spacecraft
Bus & Motor
Unknown
Mass
Unknown
Launch date (UTC)
1961-06-29 (65 years ago)
Launch vehicle
Unknown
Launch site
Air Force Eastern Test Range (AFETR)
Object type
Payload
Rocket body
Debris
Shape & HBR
Unknown shape, 0.1 m
Radar Cross Section
Medium (>0.1 m² and <1 m²)

Expand to show TLE details & history
Last TLE update: 10 hours ago

TLE from 10 hours ago
0 THOR ABLESTAR DEB
1 00408U 61015EH  26256.45554463  .00000228  00000-0  30107-3 0  9998
2 00408  66.7838 258.4912 0057942  59.0808  16.8372 13.77219315317850
Epoch: 2026-09-13T10:55Z
TLE epoch observation values (Epoch: 2026-09-13T10:55:59.056Z)
Latitude
63.25824°
Longitude
159.91562°
Altitude
943.049 km
Speed
7.407 km/s
True Right ascension
21h 05m 26s
True Declination
63° 07' 24"
Sunlit
Object was in daylight at epoch
Visualization orbit readout
Latitude
Unknown
Longitude
Unknown
Altitude
Unknown
Speed
Unknown
Apparent Right ascension
Unknown
Apparent Declination
Unknown
Sunlit
N/A
Visualization observer readout
Local Sidereal Time
13:34:30
Azimuth
Unknown
Elevation
Unknown
Doppler factor
Unknown
Orbital elements
Apogee altitude
1,014.761 km
Perigee altitude
929.583 km
Semi-major axis
7,350.309 km
Eccentricity
0.00579
Inclination
66.7838°
RAAN
258.4912°
Arg. of periapsis
59.0808°
True anomaly
17.03086°
Mean anomaly
16.8372°
Eccentric anomaly
16.9339°
Mean motion
3.44417 °/min
Orbital period
104.52 mins
BSTAR
0.00030107
Loading maneuver chart data...
Computing Atmospheric mass density...
Loading historical data...
Loading historical data...
Loading historical data...
Loading historical data...
Loading historical data...
Loading historical data...
Loading historical data...

Documentation

Showing up to 5 results
|